This is the latest recevied weather packets stored in our database for station/object XE2B-20. If no packets are shown the sender has not sent any weather packets the latest 10 day(s).
| Time | Temp. | Humidity | Pressure | Rain* | Wind** | Luminosity | Snow |
|---|---|---|---|---|---|---|---|
| 1777375498 | 16.11° C | 21% | 806.5 hPa | - | - | - | - |
| 1777373998 | 15° C | 22% | 806.3 hPa | - | - | - | - |
| 1777372500 | 16.11° C | 21% | 806.3 hPa | - | - | - | - |
| 1777371000 | 16.67° C | 21% | 806.5 hPa | - | - | - | - |
| 1777369502 | 17.78° C | 20% | 806.5 hPa | - | - | - | - |
| 1777368002 | 18.33° C | 20% | 806.3 hPa | - | - | - | - |
| 1777366504 | 18.89° C | 19% | 806.4 hPa | - | - | - | - |
| 1777365005 | 19.44° C | 19% | 806.3 hPa | - | - | - | - |
| 1777363506 | 20° C | 19% | 806.4 hPa | - | - | - | - |
| 1777362006 | 20° C | 19% | 806.5 hPa | - | - | - | - |
| 1777360508 | 21.11° C | 18% | 806.4 hPa | - | - | - | - |
| 1777359010 | 22.78° C | 17% | 806.2 hPa | - | - | - | - |
| 1777357511 | 23.33° C | 17% | 805.7 hPa | - | - | - | - |
| 1777354514 | 23.89° C | 16% | 805.3 hPa | - | - | - | - |
| 1777353015 | 24.44° C | 16% | 805.3 hPa | - | - | - | - |
| 1777351516 | 24.44° C | 17% | 805.2 hPa | - | - | - | - |
| 1777350017 | 25° C | 16% | 805.3 hPa | - | - | - | - |
| 1777348518 | 25.56° C | 16% | 804.9 hPa | - | - | - | - |
| 1777347019 | 25.56° C | 16% | 804.7 hPa | - | - | - | - |
| 1777345520 | 25.56° C | 16% | 804.5 hPa | - | - | - | - |
| 1777344021 | 26.11° C | 16% | 804.2 hPa | - | - | - | - |
| 1777342523 | 26.11° C | 16% | 803.8 hPa | - | - | - | - |
| 1777341025 | 26.11° C | 16% | 803.7 hPa | - | - | - | - |
| 1777339534 | 26.67° C | 16% | 803.4 hPa | - | - | - | - |
| 1777338022 | 27.78° C | 16% | 803.2 hPa | - | - | - | - |
* Rain since midnight (hover to see other rain measurements)
** Current wind speed in m/s (hover to see current wind gust speed)